GW1009 Weather Reports


Display with metric or nautical units.
time (UTC)temp
F
wind
direction
speed
MPH
gust
MPH
rain 1hr
in
rain 24hr
in
rain mn
in
humidity
%
barometer
mb
20260507024059 41 267 0.0 4.0 0.00 0.28 0.28 93 1009.1
20260507023601 41 294 1.0 4.0 0.00 0.28 0.28 93 1009.1
20260507023059 41 273 1.0 5.0 0.00 0.28 0.28 93 1009.3
20260507022601 41 301 1.0 4.0 0.00 0.28 0.28 93 1009.1
20260507022059 41 299 0.0 7.0 0.01 0.28 0.28 93 1009.1
20260507021600 41 293 2.0 6.0 0.01 0.28 0.28 93 1009.2
20260507021058 41 265 0.0 4.0 0.01 0.28 0.28 93 1009.5
20260507020600 41 265 0.0 4.0 0.01 0.28 0.28 93 1009.4
20260507020059 41 246 0.0 5.0 0.01 0.28 0.28 93 1009.3
20260507015557 41 270 0.0 4.0 0.01 0.28 0.28 93 1009.5
20260507015057 41 285 1.0 5.0 0.01 0.28 0.28 93 1009.5
20260507014602 41 299 1.0 5.0 0.01 0.28 0.28 93 1009.4
20260507014057 41 227 0.0 3.0 0.01 0.28 0.28 93 1009.5
20260507013556 41 288 0.0 3.0 0.01 0.28 0.28 93 1009.1
20260507013116 41 288 0.0 4.0 0.01 0.28 0.28 93 1009.3
20260507012556 41 273 1.0 3.0 0.01 0.28 0.28 93 1009.3
20260507012056 41 290 0.0 4.0 0.00 0.27 0.27 93 1009.0
20260507011603 41 292 0.0 4.0 0.00 0.27 0.27 93 1009.2
20260507011054 41 281 0.0 4.0 0.00 0.27 0.27 93 1009.2
20260507010554 41 286 0.0 3.0 0.00 0.27 0.27 93 1009.3
20260507010104 41 291 1.0 3.0 0.00 0.27 0.27 93 1009.2
20260507005555 41 294 0.0 5.0 0.00 0.27 0.27 93 1009.2
20260507005053 41 294 1.0 5.0 0.00 0.27 0.27 93 1009.0
20260507004552 41 283 0.0 3.0 0.00 0.27 0.27 93 1008.9
20260507004053 41 290 0.0 3.0 0.00 0.27 0.27 93 1008.6
20260507003550 42 252 0.0 4.0 0.00 0.27 0.27 93 1008.5
20260507003049 42 295 0.0 4.0 0.00 0.27 0.27 93 1008.4
20260507002548 42 237 0.0 3.0 0.00 0.27 0.27 93 1008.4
20260507002048 42 238 0.0 6.0 0.00 0.27 0.27 93 1008.3
20260507001551 42 290 0.0 6.0 0.00 0.27 0.27 93 1008.1
20260507001047 42 273 3.0 7.0 0.00 0.27 0.27 93 1008.2
20260507000549 42 285 0.0 7.0 0.00 0.27 0.27 93 1008.4
20260507000046 42 288 0.0 10.0 0.00 0.27 0.27 93 1008.3
20260506235545 42 273 5.0 10.0 0.00 0.27 0.27 93 1008.1
20260506235044 42 287 3.0 9.0 0.00 0.27 0.27 93 1008.1
20260506234545 42 329 4.0 11.0 0.00 0.27 0.27 93 1008.1
20260506234043 42 285 6.0 11.0 0.00 0.27 0.27 93 1008.0
20260506233544 42 302 6.0 14.0 0.00 0.27 0.27 93 1007.9
20260506233055 42 290 6.0 14.0 0.00 0.27 0.27 93 1007.6
20260506232539 42 325 8.0 14.0 0.00 0.27 0.27 93 1007.4
20260506232041 42 289 8.0 12.0 0.00 0.27 0.27 93 1007.5
20260506231540 42 288 6.0 14.0 0.00 0.27 0.27 93 1007.6
20260506231039 42 262 5.0 14.0 0.00 0.27 0.27 93 1007.6
20260506230536 43 272 5.0 16.0 0.00 0.27 0.27 93 1007.4
20260506230037 43 284 9.0 16.0 0.00 0.27 0.27 93 1007.1
20260506225540 43 296 7.0 14.0 0.01 0.27 0.27 93 1007.3
20260506225038 43 311 8.0 16.0 0.01 0.27 0.27 93 1007.0
20260506224536 43 295 10.0 16.0 0.01 0.27 0.27 93 1007.0
20260506224035 43 292 7.0 15.0 0.01 0.27 0.27 93 1007.0
20260506223536 43 279 6.0 18.0 0.01 0.27 0.27 93 1007.0
20260506223034 43 297 7.0 14.0 0.01 0.27 0.27 93 1006.9
20260506222534 43 298 6.0 14.0 0.01 0.27 0.27 93 1006.9
20260506222035 43 292 8.0 15.0 0.01 0.27 0.27 93 1006.9
20260506221533 43 320 8.0 17.0 0.01 0.27 0.27 93 1006.8
20260506221032 43 285 9.0 17.0 0.01 0.27 0.27 93 1006.8
20260506220534 43 263 11.0 17.0 0.01 0.27 0.27 93 1006.8
20260506220032 43 291 8.0 19.0 0.01 0.27 0.27 93 1006.8
20260506215531 43 289 11.0 19.0 0.00 0.26 0.26 93 1006.6
20260506215031 43 296 9.0 15.0 0.00 0.26 0.26 93 1006.6
20260506214531 43 290 9.0 14.0 0.00 0.26 0.26 93 1006.5
20260506214030 43 286 7.0 15.0 0.00 0.26 0.26 93 1006.5
20260506213530 43 286 8.0 18.0 0.00 0.26 0.26 93 1006.4
20260506213030 44 281 9.0 18.0 0.01 0.26 0.26 93 1006.3
20260506212531 44 273 8.0 17.0 0.01 0.26 0.26 93 1006.2
20260506212130 44 306 7.0 14.0 0.01 0.26 0.26 93 1006.2
20260506211530 44 298 8.0 14.0 0.01 0.26 0.26 93 1006.0
20260506211029 44 285 7.0 14.0 0.01 0.26 0.26 93 1005.9
20260506210527 44 317 7.0 12.0 0.02 0.26 0.26 93 1005.9
20260506210034 44 296 7.0 12.0 0.02 0.26 0.26 93 1005.9
20260506205529 44 288 7.0 13.0 0.02 0.26 0.26 93 1005.9
20260506205027 44 296 6.0 14.0 0.03 0.26 0.26 93 1005.8
20260506204527 44 313 7.0 14.0 0.03 0.26 0.26 93 1005.6
20260506204027 44 296 5.0 11.0 0.03 0.26 0.26 93 1005.8
20260506203529 44 297 6.0 11.0 0.04 0.26 0.26 93 1005.8
20260506203027 44 303 5.0 13.0 0.03 0.25 0.25 93 1005.7
20260506202527 44 290 7.0 13.0 0.03 0.25 0.25 93 1005.7
20260506202026 44 298 5.0 10.0 0.03 0.25 0.25 93 1005.7
20260506201530 44 296 6.0 11.0 0.03 0.25 0.25 93 1005.6
20260506201027 44 302 6.0 12.0 0.03 0.25 0.25 93 1005.6
20260506200525 44 311 5.0 12.0 0.02 0.24 0.24 93 1005.6
20260506200036 44 294 5.0 9.0 0.02 0.24 0.24 93 1005.5
20260506195525 44 310 5.0 11.0 0.02 0.24 0.24 93 1005.5
20260506195027 44 278 6.0 18.0 0.01 0.23 0.23 93 1005.5
20260506194525 44 302 10.0 18.0 0.02 0.23 0.23 93 1005.5
20260506194024 44 298 8.0 15.0 0.02 0.23 0.23 93 1005.5
20260506193524 44 321 7.0 10.0 0.01 0.22 0.22 93 1005.3
20260506193027 44 306 6.0 11.0 0.01 0.22 0.22 93 1005.4
20260506192524 44 279 6.0 11.0 0.01 0.22 0.22 93 1005.2
20260506192023 44 309 7.0 11.0 0.01 0.22 0.22 93 1005.2
20260506191523 44 313 7.0 11.0 0.01 0.22 0.22 93 1005.1
20260506191022 44 317 6.0 11.0 0.01 0.22 0.22 93 1005.1
20260506190525 45 288 5.0 8.0 0.01 0.22 0.22 93 1005.0
20260506190021 45 304 4.0 8.0 0.01 0.22 0.22 93 1004.9
20260506185521 45 296 3.0 8.0 0.01 0.22 0.22 93 1004.8
20260506185022 45 291 4.0 9.0 0.01 0.22 0.22 93 1004.8
20260506184521 45 281 4.0 8.0 0.00 0.21 0.21 93 1004.8
20260506184021 45 265 4.0 8.0 0.00 0.21 0.21 93 1004.9
20260506183521 44 287 3.0 9.0 0.00 0.21 0.21 93 1004.7
20260506183021 44 288 2.0 9.0 0.00 0.21 0.21 93 1004.7
20260506182520 44 308 3.0 7.0 0.00 0.21 0.21 93 1004.7
20260506182020 44 305 1.0 9.0 0.00 0.21 0.21 93 1004.7
20260506181521 44 320 6.0 10.0 0.00 0.21 0.21 93 1004.6
20260506181020 44 276 5.0 10.0 0.00 0.21 0.21 93 1004.7
20260506180520 44 280 1.0 8.0 0.00 0.21 0.21 93 1004.8
20260506180020 44 300 3.0 9.0 0.00 0.21 0.21 93 1004.5
20260506175520 44 309 5.0 9.0 0.00 0.21 0.21 93 1004.6
20260506175018 44 295 3.0 6.0 0.01 0.21 0.21 93 1004.6
20260506174519 44 288 3.0 7.0 0.01 0.21 0.21 93 1004.5
20260506174018 44 296 1.0 5.0 0.01 0.21 0.21 93 1004.4
20260506173518 44 302 1.0 5.0 0.01 0.21 0.21 93 1004.4
20260506173022 44 301 1.0 4.0 0.01 0.21 0.21 93 1004.4
20260506172518 44 306 1.0 6.0 0.01 0.21 0.21 93 1004.5
20260506172017 44 300 3.0 6.0 0.01 0.21 0.21 93 1004.5
20260506171518 44 305 3.0 5.0 0.01 0.21 0.21 93 1004.6
20260506171021 44 295 2.0 4.0 0.02 0.21 0.21 93 1004.6
20260506170518 44 289 2.0 4.0 0.02 0.21 0.21 93 1004.5
20260506170016 44 288 2.0 4.0 0.03 0.21 0.21 93 1004.7
20260506165516 43 298 2.0 5.0 0.04 0.21 0.21 93 1004.6
20260506165017 43 299 2.0 5.0 0.03 0.20 0.20 93 1004.6
20260506164516 43 321 3.0 8.0 0.03 0.20 0.20 93 1004.5
20260506164015 44 292 3.0 8.0 0.03 0.20 0.20 93 1004.6
20260506163516 44 298 4.0 11.0 0.04 0.20 0.20 93 1004.7
20260506163017 44 304 6.0 11.0 0.04 0.20 0.20 93 1004.7
20260506162514 44 331 6.0 10.0 0.05 0.20 0.20 93 1004.7
20260506162013 44 304 5.0 11.0 0.05 0.20 0.20 93 1004.7
20260506161513 45 300 6.0 10.0 0.05 0.20 0.20 93 1004.8
20260506161011 45 289 2.0 4.0 0.04 0.19 0.19 93 1004.6
20260506160511 45 306 0.0 7.0 0.03 0.18 0.18 93 1004.4
20260506160015 45 304 4.0 7.0 0.03 0.18 0.18 93 1004.6
20260506155514 45 328 3.0 11.0 0.02 0.17 0.17 93 1004.6
20260506155009 46 310 6.0 11.0 0.02 0.17 0.17 92 1004.6
20260506154508 46 332 6.0 12.0 0.02 0.17 0.17 92 1004.5
20260506153507 48 325 8.0 12.0 0.02 0.16 0.16 92 1004.3
20260506153007 49 341 7.0 12.0 0.02 0.16 0.16 92 1004.4
20260506152506 51 302 8.0 11.0 0.01 0.15 0.15 92 1004.4
20260506152005 51 318 6.0 9.0 0.01 0.15 0.15 93 1004.2
20260506151507 52 325 3.0 8.0 0.02 0.15 0.15 93 1004.1
20260506151005 52 309 2.0 8.0 0.02 0.15 0.15 93 1004.0
20260506150504 52 301 3.0 5.0 0.03 0.15 0.15 93 1004.0
20260506150005 52 292 2.0 5.0 0.03 0.15 0.15 92 1004.1
20260506145503 53 299 3.0 11.0 0.04 0.15 0.15 93 1004.1
20260506145004 53 220 2.0 11.0 0.05 0.15 0.15 93 1004.1
20260506144503 53 221 3.0 8.0 0.05 0.15 0.15 93 1004.1
20260506144003 53 209 4.0 9.0 0.05 0.14 0.14 94 1004.1
20260506143600 53 182 4.0 9.0 0.06 0.14 0.14 94 1004.3
20260506143102 53 219 5.0 9.0 0.07 0.14 0.14 94 1004.3
20260506142558 52 225 2.0 9.0 0.07 0.14 0.14 94 1004.4
20260506142057 52 205 3.0 9.0 0.08 0.14 0.14 94 1004.4
20260506141610 52 211 3.0 9.0 0.07 0.13 0.13 94 1004.3
20260506141055 51 205 2.0 5.0 0.07 0.13 0.13 94 1004.4
20260506140555 50 239 0.0 1.0 0.06 0.12 0.12 93 1004.4
20260506140053 50 319 0.0 2.0 0.06 0.12 0.12 93 1004.6
20260506135552 50 319 1.0 3.0 0.05 0.11 0.11 93 1004.7
20260506135052 50 319 1.0 3.0 0.04 0.10 0.10 93 1004.7
20260506134552 50 319 2.0 3.0 0.04 0.10 0.10 93 1004.9
20260506134052 50 319 1.0 4.0 0.03 0.09 0.09 93 1004.8
20260506133552 50 319 2.0 4.0 0.03 0.08 0.08 93 1004.8
20260506133101 50 313 2.0 4.0 0.02 0.07 0.07 93 1004.8
20260506132551 50 211 0.0 4.0 0.02 0.07 0.07 93 1004.6
20260506132050 50 193 0.0 3.0 0.01 0.06 0.06 93 1004.6
20260506131554 50 125 0.0 2.0 0.01 0.06 0.06 93 1004.5
20260506131050 50 125 1.0 2.0 0.01 0.06 0.06 93 1004.4
20260506130550 50 124 1.0 2.0 0.01 0.06 0.06 93 1004.3
20260506130050 50 125 0.0 3.0 0.01 0.06 0.06 94 1004.4
20260506125548 49 125 0.0 3.0 0.01 0.06 0.06 93 1004.3
20260506125047 49 125 1.0 3.0 0.01 0.06 0.06 93 1004.2
20260506124548 49 126 1.0 2.0 0.01 0.06 0.06 93 1004.3
20260506124047 49 126 1.0 2.0 0.01 0.06 0.06 93 1004.2
20260506123546 49 126 0.0 2.0 0.00 0.05 0.05 93 1004.4
20260506123046 48 126 1.0 2.0 0.00 0.05 0.05 93 1004.5
20260506122543 48 126 0.0 3.0 0.01 0.05 0.05 93 1004.6
20260506122043 48 126 1.0 4.0 0.01 0.05 0.05 93 1004.5
20260506121548 48 126 2.0 4.0 0.01 0.05 0.05 93 1004.6
20260506121041 47 192 2.0 3.0 0.01 0.05 0.05 93 1004.7
20260506120540 47 192 0.0 3.0 0.01 0.05 0.05 93 1004.7
20260506120106 47 194 1.0 3.0 0.01 0.05 0.05 93 1004.7
20260506115539 47 195 2.0 3.0 0.01 0.05 0.05 93 1004.9
20260506115138 47 202 1.0 3.0 0.02 0.05 0.05 93 1004.9
20260506114543 47 215 1.0 3.0 0.02 0.05 0.05 93 1005.2
20260506114037 47 302 0.0 2.0 0.02 0.05 0.05 93 1005.2
20260506113537 47 302 0.0 1.0 0.02 0.05 0.05 93 1005.3
20260506113038 47 302 0.0 1.0 0.02 0.05 0.05 93 1005.5
20260506112538 47 302 0.0 1.0 0.01 0.04 0.04 93 1005.4
20260506112036 47 302 0.0 0.0 0.01 0.04 0.04 93 1005.4
20260506111539 47 302 0.0 3.0 0.01 0.04 0.04 93 1005.5
20260506111036 47 302 1.0 3.0 0.02 0.04 0.04 93 1005.5
20260506110536 47 302 2.0 4.0 0.02 0.04 0.04 93 1005.6
20260506110036 47 301 1.0 3.0 0.02 0.04 0.04 93 1005.5
20260506105538 47 39 0.0 2.0 0.02 0.04 0.04 93 1005.4
20260506105036 47 39 0.0 2.0 0.01 0.03 0.03 93 1005.3
20260506104535 47 40 0.0 3.0 0.01 0.03 0.03 93 1005.0
20260506104035 46 40 1.0 5.0 0.02 0.03 0.03 93 1005.1
20260506103535 46 251 1.0 5.0 0.02 0.03 0.03 93 1005.2
20260506103036 46 325 2.0 3.0 0.02 0.03 0.03 93 1005.1
20260506102535 46 281 1.0 3.0 0.02 0.03 0.03 93 1005.1
20260506102034 46 279 1.0 3.0 0.02 0.03 0.03 93 1005.1
20260506101533 46 287 1.0 3.0 0.02 0.03 0.03 93 1005.0
20260506101033 46 223 0.0 0.0 0.02 0.02 0.02 93 1005.0
20260506100533 46 217 0.0 2.0 0.02 0.02 0.02 93 1005.0
20260506100034 46 217 0.0 3.0 0.02 0.02 0.02 93 1005.1
20260506095533 46 318 0.0 3.0 0.02 0.02 0.02 93 1005.3
20260506095033 46 325 1.0 5.0 0.02 0.02 0.02 93 1005.0
20260506094536 46 205 1.0 7.0 0.02 0.02 0.02 93 1005.2
20260506094032 46 202 4.0 7.0 0.01 0.01 0.01 92 1004.9
20260506093531 46 279 2.0 4.0 0.01 0.01 0.01 92 1005.5
20260506093043 46 314 1.0 5.0 0.01 0.01 0.01 92 1005.3
20260506092530 46 292 1.0 4.0 0.01 0.01 0.01 92 1005.3
20260506092131 46 335 2.0 4.0 0.01 0.01 0.01 92 1005.2
20260506091529 46 338 1.0 4.0 0.01 0.01 0.01 92 1005.1
20260506091029 46 325 2.0 3.0 0.00 0.00 0.00 92 1005.0
20260506090528 46 308 1.0 3.0 0.00 0.00 0.00 92 1005.1
20260506090028 46 307 0.0 4.0 0.00 0.00 0.00 92 1005.3
20260506085527 46 307 2.0 4.0 0.00 0.00 0.00 92 1005.4
20260506085027 46 64 2.0 6.0 0.00 0.00 0.00 92 1005.3
20260506084527 46 103 1.0 6.0 0.00 0.00 0.00 92 1005.2
20260506084027 46 113 1.0 4.0 0.00 0.00 0.00 92 1005.1
20260506083530 46 80 3.0 4.0 0.00 0.00 0.00 92 1005.0
20260506083025 46 85 3.0 6.0 0.00 0.00 0.00 92 1005.0
20260506082524 46 88 3.0 6.0 0.00 0.00 0.00 92 1005.1
20260506082025 46 115 0.0 3.0 0.00 0.00 0.00 92 1005.2
20260506081523 46 115 0.0 3.0 0.00 0.00 0.00 92 1005.4
20260506081023 46 119 1.0 5.0 0.00 0.00 0.00 92 1005.2
20260506080526 46 97 2.0 5.0 0.00 0.00 0.00 92 1005.0
20260506073518 46 302 5.0 8.0 0.00 0.00 0.00 91 1006.4
20260506073017 46 304 0.0 1.0 0.00 0.00 0.00 91 1006.1
20260506072517 46 303 0.0 0.0 0.00 0.00 0.00 91 1006.0
20260506072016 46 303 0.0 2.0 0.00 0.00 0.00 91 1006.0
20260506071517 46 304 0.0 2.0 0.00 0.00 0.00 91 1006.0
20260506071014 46 304 0.0 2.0 0.00 0.00 0.00 91 1006.3
20260506070515 46 304 0.0 0.0 0.00 0.00 0.00 91 1006.3
20260506062509 46 302 2.0 4.0 0.00 0.00 0.00 91 1006.6
20260506062008 46 302 3.0 4.0 0.00 0.00 0.00 90 1006.6
20260506061507 46 296 2.0 6.0 0.00 0.00 0.00 90 1006.6
20260506061012 46 309 3.0 6.0 0.00 0.00 0.00 90 1006.7
20260506060506 46 309 3.0 5.0 0.00 0.00 0.00 90 1006.8
20260506051057 47 299 2.0 4.0 0.00 0.00 0.00 88 1007.2
20260506050559 47 308 2.0 4.0 0.00 0.00 0.00 88 1007.3
20260506050114 47 309 1.0 4.0 0.00 0.00 0.00 87 1007.3
20260506045055 48 302 1.0 4.0 0.00 0.00 0.00 87 1007.2
20260506044601 48 310 3.0 5.0 0.00 0.00 0.00 86 1007.3
20260506044052 48 306 2.0 5.0 0.00 0.00 0.00 86 1007.3
20260506043554 48 295 2.0 7.0 0.00 0.00 0.00 86 1007.6
20260506043051 49 273 2.0 7.0 0.00 0.00 0.00 86 1007.4
20260506042549 49 306 3.0 8.0 0.00 0.00 0.00 86 1007.6
20260506040517 49 304 2.0 5.0 0.00 0.00 0.00 85 1007.5
20260506040017 50 304 2.0 4.0 0.00 0.00 0.00 85 1007.6
20260506035517 50 309 1.0 4.0 0.00 0.00 0.00 85 1007.5
20260506035016 50 292 0.0 4.0 0.00 0.00 0.00 85 1007.7
20260506034516 50 301 2.0 4.0 0.00 0.00 0.00 85 1007.6
20260506034018 50 300 2.0 5.0 0.00 0.00 0.00 84 1007.6
20260506033514 50 308 3.0 9.0 0.00 0.00 0.00 84 1007.7
20260506033016 50 303 4.0 9.0 0.00 0.00 0.00 84 1007.6
20260506032514 50 302 4.0 8.0 0.00 0.00 0.00 83 1007.8
20260506032014 51 313 4.0 8.0 0.00 0.00 0.00 83 1007.8
20260506031516 51 295 2.0 5.0 0.00 0.00 0.00 83 1007.5
20260506031013 51 292 2.0 5.0 0.00 0.00 0.00 83 1007.4
20260506030512 51 305 1.0 5.0 0.00 0.00 0.00 83 1007.5
20260506030012 51 281 2.0 5.0 0.00 0.00 0.00 84 1007.7
20260506025516 51 264 0.0 4.0 0.00 0.00 0.00 83 1007.5
20260506025012 51 292 0.0 4.0 0.00 0.00 0.00 83 1007.4
20260506024511 51 303 0.0 2.0 0.00 0.00 0.00 83 1007.7